Wind_Speed
9 9 9 8 7 6 6 5 5 5 5 4 5 5 6 6 6 5 5 4 3 3 3 3 3 3 3 3 3 3 3 3 4 4 4 4 4 4 4 4 4 4 5
11 10 10 9 9 8 7 7 6 6 6 6 6 6 6 7 7 7 6 6 5 5 5 5 5 5 5 5 5 5 5 5 5 5 5 5 5 5 5 6 6 6 6
13 12 11 11 11 10 9 8 8 8 7 7 7 8 8 8 8 9 9 8 8 7 7 7 7 7 7 7 7 7 6 6 6 6 6 6 6 6 7 7 7 7 7
14 14 14 13 12 12 11 10 9 9 9 9 9 9 9 10 10 10 10 10 10 9 9 9 9 9 9 9 9 9 8 8 8 7 8 8 8 8 8 8 8 8 8
16 16 16 15 14 14 13 12 11 11 11 11 11 11 11 11 12 12 12 12 12 11 11 11 11 11 11 11 11 11 10 10 10 10 10 10 10 10 10 10 10 10 10
18 18 17 17 17 16 15 14 14 13 12 12 12 12 12 12 13 13 13 13 13 13 13 13 13 13 13 12 12 12 12 12 12 12 12 12 11 11 11 11 11 11 11
20 20 19 19 18 18 17 17 16 15 15 15 14 14 14 14 14 15 15 15 15 15 15 16 15 15 15 14 14 14 14 14 14 14 14 14 13 13 13 13 12 13 12
22 21 21 21 21 20 20 19 18 18 17 17 16 16 16 16 16 16 16 17 17 17 17 17 17 17 17 17 17 16 16 16 16 16 16 15 15 15 15 15 15 15 15
23 23 23 23 22 22 22 21 21 20 20 19 19 19 18 18 18 18 19 19 18 19 19 19 19 20 19 19 19 19 19 18 18 18 17 17 17 17 17 17 17 17 16
25 25 25 25 24 24 23 23 23 23 22 22 21 21 21 21 20 20 20 20 20 20 20 21 21 22 22 21 21 21 21 20 20 19 19 19 19 19 19 19 19 18 18
27 27 27 27 27 27 26 25 25 25 25 24 24 23 23 23 22 22 22 22 22 23 23 22 23 23 24 23 23 23 23 22 22 22 21 21 21 20 21 21 20 20 20
29 29 28 29 28 28 28 28 27 27 27 27 26 26 25 25 25 25 24 24 24 25 25 24 25 25 25 25 25 25 24 24 24 23 24 23 23 22 22 22 22 22 22
31 31 30 30 30 30 30 30 30 29 29 28 28 28 28 28 28 27 27 27 27 27 27 27 27 27 27 27 27 27 26 26 26 25 25 25 24 24 24 24 24 24 24
33 33 33 33 32 32 32 32 32 32 31 30 30 30 30 30 30 30 30 29 29 28 28 29 29 29 29 29 29 28 28 27 27 27 27 27 26 27 27 27 26 26 26
35 36 35 35 34 34 33 33 33 33 33 33 32 32 32 32 32 31 31 31 31 30 30 30 30 30 30 30 30 29 30 29 29 29 29 29 29 29 29 28 28 28 28
38 38 38 37 37 36 35 35 35 35 35 34 34 34 34 34 34 34 33 33 32 32 32 32 31 31 31 31 31 31 31 31 31 31 31 31 31 31 30 30 30 30 30
40 40 39 39 39 39 38 37 37 36 36 36 36 36 36 35 35 35 35 35 34 34 33 33 33 33 32 32 33 33 33 32 33 33 33 33 33 33 32 32 32 32 32
43 42 41 41 41 41 40 38 38 38 38 38 38 38 38 37 37 37 36 36 36 36 35 35 35 35 35 34 34 34 34 34 34 35 34 34 34 34 34 34 34 34 34
44 44 43 42 42 42 42 40 40 40 39 39 40 39 39 39 38 38 38 38 38 38 37 37 37 37 37 36 36 36 36 36 36 36 37 37 36 36 36 36 36 36 36
44 44 45 44 43 42 42 42 41 41 41 41 41 40 40 40 40 40 40 40 40 40 40 40 40 40 39 39 39 38 37 38 38 38 38 38 38 38 38 38 39 39 38
44 45 45 45 44 44 44 43 43 42 42 42 42 42 42 42 42 42 42 42 41 41 41 42 42 42 42 41 41 41 40 40 40 40 40 41 41 40 40 40 41 41 41
46 46 46 46 46 46 45 44 44 44 44 44 44 43 44 43 43 43 43 43 43 44 44 44 44 44 44 44 44 44 43 43 42 42 42 42 43 43 43 43 43 43 43
46 46 46 47 46 47 47 46 46 47 47 47 47 46 46 46 46 46 45 45 45 46 46 46 46 46 46 46 46 46 45 45 45 45 44 44 44 45 45 45 45 44 45
46 47 47 46 46 47 47 47 47 47 47 48 48 48 47 47 47 47 47 48 47 47 47 48 48 48 48 47 47 47 48 47 47 46 46 46 46 46 46 46 47 47 46
45 46 47 47 47 47 47 47 47 47 48 48 48 49 48 48 48 48 48 48 49 49 48 49 49 49 49 49 48 49 49 48 48 48 48 48 48 48 48 48 48 49 49
45 44 45 46 47 47 48 47 47 47 47 48 48 48 49 49 49 49 49 49 49 49 49 49 50 50 50 50 50 49 49 50 49 50 50 49 48 48 48 48 49 50 50
Wind_Direction
231 232 236 239 240 240 243 237 230 224 217 215 214 213 213 216 213 217 219 222 227 234 244 249 248 251 258 269 282 292 295 300 305 306 307 308 310 313 318 321 323 327 330
237 237 238 240 242 243 245 243 238 233 228 225 223 222 224 226 226 228 230 233 238 245 252 256 254 258 264 269 274 281 285 290 297 298 297 296 298 302 304 307 309 312 315
241 240 240 242 243 244 245 244 243 240 238 236 234 232 232 234 235 237 238 241 243 248 255 259 261 262 263 268 273 276 279 283 286 288 288 289 292 294 297 301 303 305 306
243 243 243 244 246 246 246 246 246 245 244 243 243 243 242 242 242 243 244 245 245 247 253 260 262 263 265 268 273 275 276 277 279 281 284 284 285 288 292 295 297 299 299
243 244 244 245 246 246 247 247 248 248 247 246 248 249 248 249 248 249 251 250 249 251 254 260 263 264 266 268 271 274 274 275 276 279 282 282 282 284 287 290 293 294 294
244 244 245 246 246 248 249 249 248 249 249 249 249 250 252 253 254 253 254 255 254 255 257 260 263 264 266 268 270 271 272 274 275 278 280 279 279 280 284 287 290 291 292
244 245 246 248 248 249 250 250 250 251 251 252 252 253 254 256 257 256 257 257 258 258 259 261 262 262 263 265 268 270 271 272 274 278 278 278 278 278 279 282 285 287 288
245 246 246 248 249 249 251 251 250 250 252 253 255 255 256 256 257 257 257 257 258 260 260 261 262 263 265 266 268 270 271 272 272 274 277 277 276 277 278 280 283 285 286
245 246 247 248 248 250 251 252 252 252 252 253 254 255 257 258 258 258 258 258 258 259 259 260 261 261 262 265 267 269 270 273 272 272 273 273 274 277 278 280 281 281 281
246 247 248 249 250 250 252 253 253 254 254 254 255 256 257 257 258 258 258 258 259 258 259 260 261 262 263 264 265 268 270 271 270 268 269 271 273 274 275 277 278 279 280
248 248 249 251 251 251 252 253 254 255 255 255 256 257 257 258 258 258 259 259 259 258 258 260 261 264 264 265 265 267 269 271 271 269 269 270 272 273 273 274 276 278 279
249 250 250 251 252 252 253 254 254 254 255 255 256 257 258 258 258 259 259 259 259 259 259 260 262 263 264 265 266 266 268 270 271 270 268 268 270 272 273 274 275 276 278
250 251 252 252 253 253 253 253 254 254 255 256 256 257 258 258 259 260 260 259 260 261 261 262 263 262 263 264 264 266 267 268 269 268 268 269 269 271 273 274 274 275 277
249 251 252 253 254 254 254 254 254 255 255 256 257 257 258 258 259 260 261 261 261 262 263 264 264 263 262 262 263 264 265 267 268 268 268 268 269 271 272 272 273 274 275
251 252 252 253 254 254 254 254 254 254 255 256 257 257 258 258 258 259 260 262 262 262 263 263 263 263 262 263 263 264 265 266 266 266 267 268 268 269 270 271 271 272 273
252 252 253 253 254 254 255 255 255 255 255 256 257 257 258 258 258 259 260 261 262 262 262 262 263 263 264 264 264 264 265 266 266 266 267 267 269 269 270 270 271 272 272
252 253 254 254 254 254 255 256 255 255 255 255 256 257 257 258 259 259 260 260 261 262 262 262 263 263 264 264 264 264 265 266 267 267 267 267 268 269 269 269 270 271 271
254 254 254 254 254 254 254 255 255 256 256 257 256 256 257 258 259 259 259 260 260 261 262 262 263 263 264 264 264 265 266 266 267 266 267 268 268 269 269 269 269 269 270
255 254 254 254 254 254 254 255 256 257 257 258 258 257 257 257 258 258 259 259 260 260 261 262 262 263 264 264 264 265 265 266 267 267 268 268 268 269 269 268 268 269 269
256 254 254 254 254 255 256 256 257 258 258 258 258 258 258 258 258 258 259 260 260 261 261 261 262 262 263 264 265 265 266 266 267 267 267 268 269 269 269 268 268 268 269
256 254 253 254 254 255 256 257 257 257 258 258 258 258 258 259 259 259 260 260 261 261 261 261 262 263 263 263 264 265 265 266 267 267 268 268 268 269 269 269 269 268 269
255 254 254 254 253 254 255 256 256 256 257 258 258 259 259 259 259 259 260 261 261 261 261 261 262 263 263 264 264 265 265 266 266 268 269 269 268 268 269 269 269 268 268
255 254 254 254 254 255 255 255 256 257 257 258 258 258 259 259 259 260 260 261 262 262 263 263 263 263 263 264 265 265 266 265 266 267 267 268 269 269 269 269 269 269 268
256 254 254 255 255 256 255 255 255 256 257 258 259 259 259 260 260 260 261 262 262 263 263 263 262 262 263 263 265 266 266 267 267 266 266 268 269 269 270 269 269 269 268
256 255 255 254 255 255 256 256 256 256 257 258 259 259 259 260 260 260 261 262 262 263 264 263 262 263 263 264 265 266 266 267 267 267 267 268 268 269 270 269 269 269 268
255 255 255 255 255 255 256 257 257 257 257 257 258 259 260 260 260 260 261 262 263 263 264 263 263 263 264 264 264 265 266 267 268 268 268 268 268 268 268 269 269 269 268
Height
5846 5846 5848 5848 5849 5850 5851 5851 5852 5853 5854 5855 5856 5857 5858 5859 5860 5861 5862 5863 5864 5865 5865 5866 5867 5867 5868 5868 5868 5869 5869 5869 5869 5869 5869 5869 5869 5870 5870 5870 5870 5870 5869
5844 5845 5846 5847 5848 5849 5850 5850 5851 5852 5853 5854 5855 5856 5857 5858 5859 5860 5861 5862 5863 5864 5864 5865 5866 5866 5867 5867 5868 5868 5868 5868 5868 5868 5868 5869 5869 5869 5869 5869 5869 5869 5869
5842 5844 5845 5846 5847 5848 5848 5849 5850 5851 5852 5853 5854 5855 5856 5857 5858 5859 5860 5861 5862 5863 5863 5864 5865 5865 5866 5866 5867 5867 5867 5867 5867 5867 5867 5868 5868 5868 5868 5868 5868 5868 5867
5840 5842 5843 5844 5845 5846 5847 5847 5848 5849 5850 5851 5852 5853 5854 5855 5856 5857 5858 5859 5860 5861 5862 5862 5863 5864 5864 5865 5865 5865 5866 5866 5866 5866 5866 5866 5866 5866 5866 5866 5866 5866 5866
5838 5839 5840 5841 5842 5843 5844 5845 5846 5847 5848 5849 5850 5851 5852 5853 5854 5855 5856 5857 5858 5859 5859 5860 5861 5861 5862 5863 5863 5863 5864 5864 5864 5865 5865 5865 5865 5865 5865 5865 5865 5865 5864
5835 5836 5837 5838 5840 5841 5842 5843 5844 5845 5845 5846 5847 5848 5849 5850 5851 5852 5853 5854 5855 5856 5857 5858 5858 5859 5860 5860 5861 5861 5862 5862 5862 5862 5863 5863 5863 5863 5863 5863 5863 5863 5863
5831 5833 5834 5835 5836 5838 5839 5840 5841 5842 5843 5844 5844 5845 5846 5847 5848 5849 5850 5851 5852 5853 5854 5855 5855 5856 5857 5857 5858 5859 5859 5860 5860 5860 5860 5860 5860 5860 5860 5860 5861 5861 5860
5827 5829 5830 5831 5833 5834 5835 5836 5837 5838 5840 5840 5841 5842 5843 5844 5845 5846 5847 5848 5849 5850 5851 5851 5852 5853 5853 5854 5855 5856 5856 5857 5857 5857 5858 5858 5858 5858 5858 5858 5858 5858 5858
5823 5825 5826 5827 5829 5830 5831 5832 5833 5835 5836 5837 5838 5839 5840 5841 5841 5842 5843 5844 5845 5846 5847 5848 5848 5849 5850 5850 5851 5852 5852 5853 5853 5854 5854 5854 5854 5854 5855 5855 5855 5855 5855
5818 5820 5822 5823 5824 5826 5827 5828 5829 5830 5831 5832 5834 5835 5836 5837 5837 5838 5839 5840 5841 5841 5842 5843 5844 5845 5845 5846 5847 5848 5848 5849 5850 5850 5850 5850 5851 5851 5851 5851 5851 5851 5851
5813 5815 5817 5818 5819 5821 5822 5823 5824 5826 5827 5828 5829 5830 5831 5832 5833 5834 5835 5835 5836 5837 5837 5838 5839 5840 5840 5841 5842 5843 5844 5844 5845 5846 5846 5846 5847 5847 5847 5847 5847 5847 5847
5807 5809 5811 5812 5814 5815 5817 5818 5819 5820 5821 5822 5824 5825 5826 5827 5828 5828 5829 5830 5831 5831 5832 5833 5834 5834 5835 5836 5837 5838 5839 5839 5840 5841 5841 5842 5842 5842 5842 5843 5843 5843 5843
5801 5802 5804 5806 5807 5809 5810 5812 5813 5814 5815 5817 5818 5819 5820 5821 5822 5823 5824 5824 5825 5826 5826 5827 5828 5829 5829 5830 5831 5833 5833 5834 5835 5835 5836 5837 5837 5837 5838 5838 5838 5838 5838
5794 5796 5797 5799 5801 5802 5803 5805 5806 5808 5809 5810 5811 5812 5814 5815 5816 5816 5817 5818 5819 5820 5820 5821 5822 5822 5823 5824 5825 5826 5827 5828 5829 5830 5830 5831 5831 5832 5832 5832 5832 5832 5832
5786 5788 5790 5792 5793 5795 5796 5797 5799 5800 5802 5803 5804 5805 5807 5808 5809 5810 5811 5811 5812 5813 5814 5814 5815 5816 5817 5817 5819 5820 5821 5822 5822 5823 5824 5825 5825 5826 5826 5826 5826 5826 5827
5778 5780 5782 5783 5785 5787 5788 5790 5791 5792 5794 5795 5797 5798 5799 5800 5801 5802 5803 5804 5805 5806 5807 5807 5808 5809 5810 5811 5812 5813 5814 5814 5815 5816 5817 5818 5818 5819 5819 5820 5820 5820 5820
5770 5772 5773 5775 5776 5778 5780 5781 5783 5784 5786 5787 5788 5790 5791 5792 5793 5794 5796 5797 5797 5798 5799 5800 5801 5802 5803 5804 5805 5805 5806 5807 5808 5808 5809 5810 5811 5812 5812 5812 5813 5813 5813
5761 5763 5764 5766 5767 5769 5771 5772 5774 5775 5777 5778 5780 5781 5782 5783 5785 5786 5787 5788 5789 5790 5791 5792 5793 5794 5795 5796 5797 5798 5799 5799 5800 5801 5801 5802 5803 5804 5804 5804 5805 5805 5805
5751 5753 5755 5756 5758 5760 5761 5763 5764 5766 5768 5769 5770 5772 5773 5774 5776 5777 5778 5779 5781 5782 5783 5784 5785 5786 5787 5788 5789 5789 5790 5791 5792 5792 5793 5794 5794 5795 5796 5796 5796 5797 5797
5741 5742 5744 5746 5748 5750 5751 5753 5754 5756 5758 5759 5761 5762 5764 5765 5766 5767 5769 5770 5771 5773 5774 5775 5776 5777 5778 5779 5780 5781 5781 5782 5783 5784 5784 5785 5785 5786 5786 5787 5788 5788 5788
5730 5732 5733 5735 5737 5739 5741 5743 5744 5746 5748 5749 5750 5752 5753 5755 5756 5758 5759 5760 5762 5763 5764 5765 5766 5767 5768 5770 5771 5772 5772 5773 5774 5774 5775 5776 5776 5776 5777 5777 5778 5778 5779
5720 5721 5723 5725 5727 5729 5731 5732 5734 5735 5737 5739 5740 5741 5743 5745 5746 5747 5749 5750 5751 5753 5754 5755 5756 5757 5758 5759 5761 5761 5763 5764 5764 5765 5765 5766 5766 5766 5767 5767 5767 5768 5768
5708 5710 5712 5714 5716 5718 5719 5721 5722 5724 5726 5727 5729 5731 5732 5734 5735 5737 5738 5740 5741 5742 5743 5744 5745 5746 5747 5748 5749 5750 5752 5753 5754 5755 5755 5755 5755 5756 5756 5756 5756 5757 5757
5697 5698 5700 5702 5704 5706 5708 5709 5711 5713 5714 5716 5718 5719 5721 5722 5724 5725 5727 5728 5729 5730 5732 5732 5733 5735 5736 5737 5738 5739 5740 5741 5742 5744 5745 5744 5744 5744 5745 5745 5745 5745 5746
5685 5687 5689 5691 5693 5694 5696 5698 5699 5701 5703 5704 5706 5708 5709 5711 5712 5714 5715 5716 5718 5719 5719 5720 5721 5722 5724 5725 5726 5727 5727 5728 5729 5731 5732 5733 5733 5733 5733 5733 5733 5733 5733
5674 5676 5677 5679 5681 5682 5684 5686 5688 5690 5692 5693 5695 5695 5697 5699 5700 5702 5703 5704 5705 5706 5707 5707 5708 5710 5711 5713 5714 5714 5715 5716 5717 5717 5719 5720 5721 5721 5720 5720 5720 5720 5721